www.pogodaiklimat.ru

Погода и климат >> Архив погоды >> Нигер >> Маради


ПОГОДА в Маради

  • Прогноз погоды в Маради
  • Монитор погоды в Маради

АРХИВ ПОГОДЫ в Маради

Время (UTC), дата Ветер
(напр.,м/с)
 
Видим.   Явления Облачность Т
(С)
Тd
(С)
f
(%)
Тe
(С)
Тes
(С)
Комфортность P
(гПа)
Po
(гПа)
Тmin
(С)
Tmax
(С)
R
(мм)
R24
(мм)
S
(см)
18 10.02 В 10 6000 м пыль 9/0
[Cs]
+26.6 -4.0 13 +24 +24 комфорт 1012.9 970.6 +30.0
21 10.02 СВ 12 6000 м пыль 9/0
[Cs]
+22.5 -4.8 16 +21 +21 комфорт 1014.3 972.0
03 11.02 СВ 10 8000 м пыль 9/0
[Cs]
+16.5 -5.1 22 +15 +15 1013.1 971.0
06 11.02 В 12 6000 м пыль 9/0
[Cs]
+16.0 -6.6 21 +14 +14 1013.7 971.4 +15.5
09 11.02 В 1 600 м пыль {туман} 9/0
[Cs]
+21.5 -4.5 17 +20 +31 1016.1 973.8
12 11.02 В 18 500 м пыльный позёмок {туман} 9/0
[Cs]
+27.8 -5.3 11 +25 +25 комфорт 1013.5 971.7
15 11.02 В 8 700 м пыль {туман} 9/0
[Cs]
+29.1 -5.0 10 +26 +27 жарко 1011.3 969.3
18 11.02 В 4 700 м пыль {туман} 9/0
[Cs]
+26.8 -2.0 15 +24 +24 комфорт 1012.5 970.2 +30.3
21 11.02 В 8 1800 м пыль {туман} 9/0
[Cs]
+23.0 -3.5 17 +21 +21 комфорт 1014.4 972.2
03 12.02 В 10 2000 м пыль 9/0
[Cs]
+18.2 -3.5 23 +17 +17 1012.8 970.9
06 12.02 В 8 1700 м пыль 9/0
[Cs]
+16.6 -3.1 26 +15 +15 1013.3 971.1 +15.5
09 12.02 В 16 1000 м пыль 9/0
[Cs]
+22.2 -6.2 14 +21 +21 комфорт 1015.7 973.5
12 12.02 В 16 1200 м пыль 9/0
[Cs]
+27.6 -0.8 16 +25 +25 комфорт 1013.8 983.1
15 12.02 СВ 12 1200 м пыль 9/0
[Cs]
+30.0 -5.5 10 +26 +26 жарко 1011.5 969.7
18 12.02 В 6 1200 м пыль 9/0
[Cs]
+27.2 -2.8 14 +25 +25 комфорт 1012.6 970.4 +30.4
21 12.02 В 6 1200 м пыль 9/0
[Cs]
+21.6 -0.7 23 +21 +21 комфорт 1014.8 972.5
03 13.02 В 8 6000 м пыль 9/0
[Cs]
+17.0 -4.0 23 +16 +16 1013.6 971.6
06 13.02 В 8 8000 м пыль 9/0
[Cs]
+15.0 -3.4 28 +13 +13 1015.0 972.6 +15.0
09 13.02 В 18 8000 м пыльный позёмок 6/0
[Ci sp]
+24.4 -7.0 12 +22 +22 комфорт 1016.9 974.7
12 13.02 В 14 10 км 6/0
[Ci sp]
+29.6 -3.0 12 +26 +26 жарко 1015.0 973.1
15 13.02 В 16 10 км 6/0
[Ci sp]
+31.5 -10.6 6 +27 +27 жарко 1012.7 970.9
18 13.02 СВ 10 10 км 6/0
[Ci sp]
+28.0 -7.6 9 +25 +25 комфорт 1013.4 971.1 +32.3
21 13.02 СВ 12 10 км 8/0
[Ci sp]
+24.0 -9.0 10 +22 +22 комфорт 1015.7 973.8
03 14.02 В 16 8000 м пыль 8/0
[Ci sp]
+19.5 -7.9 15 +18 +18 1015.8 974.0
06 14.02 В 18 3600 м пыльный позёмок 8/0
[Cs]
+17.5 -7.8 17 +15 +15 1017.6 975.3 +17.5
09 14.02 В 24 2000 м пыльный позёмок 9/0
[Cs]
+20.5 -5.2 17 +19 +19 1020.1 977.7
12 14.02 В 18 3000 м пыльный позёмок 9/0
[Cs]
+25.0 -8.8 10 +22 +22 комфорт 1018.1 975.9
15 14.02 В 16 2800 м пыльный позёмок 9/0
[Cs]
+27.0 -11.0 7 +23 +23 комфорт 1015.4 973.3
18 14.02 В 12 2500 м пыль 9/0
[Cs]
+25.0 -12.5 7 +22 +22 комфорт 1015.8 973.3 +27.8
21 14.02 В 12 2500 м пыль 9/0
[Cs]
+21.5 -11.2 10 +20 +20 1017.8 975.3
03 15.02 В 6 3000 м пыль 9/0
[Cs]
+15.4 -3.5 27 +14 +14 1018.4 975.9
06 15.02 В 8 600 м пыль {туман} 9/0
[Cs]
+13.8 -3.4 30 +12 +12 1019.5 976.7 +13.5
09 15.02 В 21 900 м пыльный позёмок {туман} 9/0
[Cs]
+19.5 -9.2 13 +17 +17 1020.9 978.2
12 15.02 В 17 1600 м пыльный позёмок {туман} 9/0
[Cs]
+24.8 -7.6 11 +22 +22 комфорт 1017.8 975.8
15 15.02 В 14 2600 м пыльный позёмок 9/0
[Cs]
+27.0 -6.8 10 +24 +24 комфорт 1015.7 973.3
18 15.02 В 8 2600 м пыль 9/0
[Cs]
+25.0 -5.7 13 +23 +23 комфорт 1016.1 973.4 +28.0
21 15.02 СВ 10 5000 м пыль 9/0
[Cs]
+20.6 -8.2 14 +19 +19 1018.1 975.4
03 16.02 В 12 5000 м пыль 9/0
[Cs]
+15.5 -5.0 24 +13 +13 1016.3 973.9
06 16.02 В 12 4500 м пыль 9/0
[Cs]
+14.0 -5.6 25 +11 +11 1017.3 974.6 +14.0
09 16.02 В 18 3200 м пыльный позёмок 9/0
[Cs]
+20.2 -5.4 17 +18 +18 1019.1 976.4
12 16.02 В 18 700 м пыльный позёмок 9/0
[Cs]
+25.6 -5.0 13 +23 +23 комфорт 1016.7 974.3
15 16.02 В 12 400 м пыль {туман} 9/0
[Cs]
+27.5 -9.6 8 +24 +24 комфорт 1013.7 971.4
18 16.02 В 8 400 м пыль {туман} 9/0
[Cs]
+25.0 -5.6 13 +23 +23 комфорт 1014.4 971.8 +28.5
21 16.02 СВ 6 600 м пыль {туман} 9/0
[Cs]
+21.5 -1.8 21 +21 +21 комфорт 1016.4 973.9
03 17.02 СВ 8 1600 м пыль 9/0
[Cs]
+16.5 -5.1 22 +15 +15 1014.8 972.5
06 17.02 В 6 1200 м пыль 9/0
[Cs]
+14.7 -4.5 26 +13 +13 1016.3 973.7 +14.7
09 17.02 В 16 700 м пыльный позёмок {туман} 9/0
[Cs]
+21.5 -5.6 16 +20 +20 1018.3 975.8
12 17.02 В 10 800 м пыль {туман} 9/0
[Cs]
+26.5 -6.7 11 +24 +24 комфорт 1015.9 973.4
15 17.02 В 12 900 м пыль {туман} 9/0
[Cs]
+28.6 -4.4 11 +25 +25 комфорт 1012.1 970.0

 

Местоположение метеостанции Маради (Нигер): широта 13.47 долгота 7.08 высота над уровнем моря 373 м.

В архиве по умолчанию представлена погода в Маради за последнюю неделю. Архивные данные за месяц целиком и за предыдущие месяцы, начиная с января 2011 года, Вы можете получить, выбрав интересующий диапазон дат из раскрывающегося списка и нажав кнопку "Ввод!".


*Определитесь, кто Вы:
робот инопланетянин человек

Внимание! Время в таблицах - всемирное. Для получения местного времени необходимо прибавить поправку, которая равна 1 ч.

Смотрите также архив погоды в соседних городах и на ближайших метеорологических станциях:

Погода в Вирнин-Конни (Нигер) (201 км)
Погода в Магарьа (Нигер) (208 км)
Погода в Зиндере (Нигер) (208 км)
Погода в Кано (Нигерия) (223 км)
Погода в Тахве (Нигер) (253 км)
Погода в Гуре (Нигер) (353 км)
Погода в Йелве (Нигерия) (384 км)
Погода в Агадесе (Нигер) (401 км)
Погода в Досо (Нигер) (423 км)
Погода в Гае (Нигер) (432 км)

Пояснения к столбцам:

Ветер - указаны скорость ветра в м/с - средняя за 10 мин, порывы в срок и между сроками (в фигурных скобках) и направление, откуда дует ветер: С - северный, СВ - северо-восточный, В - восточный, ЮВ - юго-восточный, Ю - южный, ЮЗ - юго-западный, З - западный, СЗ - северо-западный.
Видимость - горизонтальная дальность видимости в метрах или километрах. При видимости от 1 до 10 км при отсутствии осадков обычно наблюдается дымка, при ухудшении видимости до 1 км и менее - туман. В сухую погоду видимость может ухудшаться дымом, пылью или мглою.
Явления - указаны атмосферные явления, наблюдавшиеся в срок или в последний час перед сроком; фигурными скобками обозначены явления, наблюдавшиеся между сроками (за 1-3 часа до срока); квадратными скобками обозначены град или гололедные отложения с указанием их диаметра в мм.
Облачность - указаны через наклонную черту общая и нижняя облачность в баллах и высота нижней границы облаков в метрах; квадратными скобками обозначены формы облаков: Ci - перистые, Cs - перисто-слоистые, Cc - перисто-кучевые, Ac - высококучевые, As - высокослоистые, Sc - слоисто-кучевые, Ns - слоисто-дождевые, Cu - кучевые, Cb - кучево-дождевые. Подробнее классификацию облаков см. в Атласе облаков (PDF).
T - Температура воздуха - температура, измеренная на высоте 2 м над землей.
Td - Температура точки росы - температура, при понижении до которой содержащийся в воздухе водяной пар достигнет насыщения.
f - Относительная влажность воздуха - влажноcть воздуха, измеренная на высоте 2 м над землей.
Te - Эффективная температура - температура, которую ощущает одетый по сезону человек в тени. Характеристика душности погоды. При расчете учитывается влияние влажности воздуха и скорости ветра на теплоощущения человека.
Tes - Эффективная температура на солнце - температура, которую ощущает человек, с поправкой на солнечный нагрев. Характеристика знойности погоды. Зависит от высоты солнца над горизонтом, облачности и скорости ветра. Ночью, в пасмурную погоду, а также при ветре 12 м/с и более поправка равна нулю.
P - Атмосферное давление - приведенное к уровню моря атмосферное давление.
Po - Атмосферное давление - измеренное на уровне метеостанции атмосферное давление.
Tmin - Минимальная температура - минимум температуры воздуха на высоте 2 м над землей.
Tmax - Максимальная температура - максимум температуры воздуха на высоте 2 м над землей.
R - Количество осадков - Количество выпавших осадков за период времени, мм. При наведении курсора мыши на число - период времени, за который выпало указанное количество осадков.
R24 - Количество осадков - Количество выпавших осадков за 24 часа, мм.
S - Снежный покров - Высота снежного покрова, см. При наведении курсора мыши на число - состояние снежного покрова и степень покрытия местности в баллах.